GEFSSGP_500_meanwind_156.txt.gz
Wind_Speed
15 14 13 12 10 9 9 8 6 5 4 3 2 1 1 1 1 1 2 3 4 4 5 4 5 5 6 6 7 7 6 6 6 6 7 7 7 6 6 6 6 6 6 6 6 6 6 6 6
17 16 15 13 12 11 11 9 8 6 5 4 3 2 2 2 2 2 3 4 5 5 6 6 6 6 7 7 8 8 8 8 8 8 8 8 8 8 8 8 8 8 8 8 8 7 7 7 7
18 18 17 15 14 13 12 11 9 8 7 5 4 3 3 3 3 4 5 5 6 6 7 7 7 8 8 9 9 9 9 9 10 10 10 10 10 9 9 9 9 9 9 9 9 9 9 8 8
20 19 18 17 15 15 14 12 10 9 8 7 5 5 5 5 5 5 6 6 7 7 8 8 9 9 10 10 10 9 10 10 11 11 11 11 11 11 11 11 11 11 11 10 10 10 10 10 10
20 19 19 18 17 16 15 13 12 10 9 8 7 6 6 5 6 6 7 7 7 8 9 9 10 11 11 11 11 11 11 11 11 11 12 12 12 13 12 12 12 12 12 12 12 12 11 11 11
20 20 19 18 18 17 16 15 13 12 11 9 8 8 7 7 7 7 7 7 8 8 9 10 12 12 13 12 12 11 11 12 12 12 13 13 14 14 14 14 14 13 13 13 13 13 13 13 13
21 20 19 19 18 18 17 16 15 14 13 11 10 9 9 8 8 8 8 9 9 9 10 11 12 13 14 13 13 12 12 13 13 13 14 15 15 15 15 15 15 16 15 15 15 15 15 15 15
21 20 20 20 19 19 18 17 16 15 13 11 11 11 9 8 9 9 9 10 10 10 11 12 13 13 14 14 14 13 14 14 15 15 15 16 16 17 17 16 17 17 17 17 17 17 17 17 18
20 20 20 21 21 19 18 18 17 16 14 13 13 12 9 9 10 10 10 11 11 11 11 12 14 14 14 14 15 14 14 15 16 16 16 17 17 18 18 19 19 19 19 19 19 19 19 19 19
21 20 22 22 21 20 18 17 17 16 15 14 14 12 11 11 11 11 11 12 12 12 13 14 15 16 16 16 16 15 15 15 16 17 17 18 18 19 19 20 20 20 20 20 20 20 20 20 20
21 22 22 21 21 20 19 18 17 16 16 14 14 12 12 12 12 12 13 13 13 14 15 16 16 17 18 18 17 16 16 17 17 18 18 18 19 19 20 20 21 21 21 21 21 21 22 21 22
21 21 21 21 21 20 20 19 18 17 16 15 14 13 13 13 14 14 14 15 15 15 16 17 17 18 19 19 18 18 18 18 18 18 18 19 19 20 20 21 22 22 22 22 22 22 23 24 24
21 21 21 21 21 21 20 19 18 17 16 16 15 14 14 15 15 16 16 16 15 16 17 18 17 18 19 19 19 19 19 19 19 20 21 21 21 21 22 21 22 23 23 22 23 24 25 24 25
21 21 21 21 21 21 20 19 18 18 17 16 15 15 16 16 16 16 16 15 15 16 16 17 18 18 19 20 20 20 20 20 20 21 22 22 22 23 22 23 23 23 24 24 24 25 26 25 26
20 20 20 20 20 20 20 20 20 19 18 17 16 16 18 18 18 17 16 16 17 17 18 19 19 19 20 20 21 22 23 22 22 23 23 22 23 24 23 23 23 24 25 26 26 26 26 26 27
19 18 19 19 19 19 19 19 19 19 18 18 17 17 18 18 19 18 18 19 19 19 20 20 21 21 21 21 22 24 24 24 23 24 24 24 24 24 24 24 24 24 25 26 26 26 25 26 26
17 17 17 19 18 18 18 20 19 18 18 17 17 17 18 19 19 19 19 20 20 21 21 22 22 22 23 24 24 24 25 25 25 25 24 24 25 25 26 25 25 25 25 26 27 26 26 26 26
15 15 16 18 18 17 17 19 19 19 18 19 19 18 19 19 19 20 20 21 21 22 22 23 23 24 25 25 25 25 25 25 25 25 25 25 25 26 26 26 26 26 26 27 27 27 27 27 27
16 16 16 17 17 17 17 18 19 19 20 20 19 19 18 18 19 20 20 20 20 21 21 23 24 25 26 26 26 26 25 25 25 25 24 25 26 26 26 26 27 27 27 27 27 28 28 28 28
16 16 16 17 18 17 18 18 19 19 20 20 20 19 19 19 20 20 20 20 20 21 22 23 24 25 25 25 25 25 26 26 26 25 25 26 26 26 26 26 27 27 28 28 28 28 28 28 29
15 16 17 17 17 17 18 18 20 19 20 21 21 21 21 20 20 20 20 21 22 22 23 24 24 23 23 24 24 25 26 26 26 26 26 26 26 27 27 26 27 28 28 28 27 27 28 29 29
14 16 16 17 16 16 17 16 20 20 20 20 21 22 22 22 22 22 22 22 22 23 24 25 25 24 24 24 24 25 25 25 25 26 27 27 28 27 27 27 27 27 27 27 27 27 27 28 28
15 15 16 16 17 17 18 18 18 21 20 20 21 21 21 22 22 22 22 22 22 23 24 25 25 24 24 23 24 24 24 24 25 26 27 27 27 27 27 27 27 26 27 27 27 27 28 28 28
14 15 15 16 17 17 18 18 18 21 20 20 20 20 20 21 22 23 22 22 23 23 24 24 25 25 24 24 24 24 25 25 25 26 27 28 28 27 26 26 26 26 26 26 27 27 27 27 27
13 13 12 13 15 16 19 19 19 21 20 20 20 20 20 21 21 22 22 22 23 23 24 25 25 25 25 25 24 25 26 26 26 27 28 28 28 28 27 27 27 27 27 26 26 26 26 26 26
13 13 13 14 14 16 19 19 19 20 20 20 20 20 20 20 21 22 22 23 23 24 24 25 24 24 24 25 25 26 27 27 27 27 27 28 27 27 28 28 28 28 27 26 26 25 25 25 25
14 14 16 16 16 16 18 19 20 19 19 18 18 18 18 20 21 21 22 22 23 23 24 24 24 24 24 25 27 27 28 28 27 26 27 27 27 27 26 26 26 26 26 26 25 24 24 24 24
15 16 17 16 16 17 17 18 17 18 17 17 17 17 18 19 20 21 21 22 23 23 24 24 23 24 25 26 27 28 28 27 27 27 27 26 26 25 25 25 25 24 24 24 23 23 23 23 24
15 16 17 17 17 17 17 18 19 19 17 17 18 18 18 19 20 20 21 21 22 22 23 23 23 24 25 25 26 26 26 26 25 25 25 25 25 25 25 24 24 23 23 22 22 22 22 22 23
14 15 15 16 17 18 18 19 19 19 18 17 17 17 18 19 20 20 20 21 21 22 22 23 24 25 25 25 25 25 25 25 25 25 25 25 25 24 24 24 23 23 22 22 21 21 21 20 20

GEFSSGP_500_meanwind_162.txt.gz
Wind_Speed
15 14 13 12 10 8 5 5 6 7 9 9 8 8 7 6 5 6 7 6 6 7 7 7 7 8 8 8 9 9 10 10 10 10 10 10 10 10 10 10 10 10 9 8 8 8 7 7 7
17 16 15 13 11 8 5 8 10 10 11 9 9 8 8 7 6 7 8 8 8 8 8 8 9 9 9 9 10 10 11 11 11 12 12 12 12 12 12 11 11 11 10 10 10 10 9 9 9
18 17 16 14 11 9 9 12 13 12 12 11 10 9 9 8 8 8 9 9 9 9 10 10 10 10 10 10 11 11 11 12 12 13 13 13 13 13 13 12 12 12 12 11 11 11 11 11 10
19 18 16 14 11 10 11 14 15 14 13 11 11 11 11 9 10 10 10 10 10 11 11 11 11 11 12 12 12 12 13 13 13 13 14 14 14 14 13 13 13 13 13 13 13 12 12 12 12
19 18 16 14 11 12 15 15 14 15 14 13 13 13 12 11 11 12 12 11 11 12 12 12 12 12 13 13 14 14 14 14 14 14 14 15 15 15 15 14 14 14 14 14 14 14 14 14 13
19 17 15 13 13 15 17 17 15 14 14 15 14 14 13 12 12 12 12 12 12 12 13 13 13 13 13 15 15 16 15 15 15 16 16 16 16 16 16 15 16 16 15 15 15 15 15 15 15
19 17 15 13 15 17 19 19 17 16 15 16 16 15 12 11 13 14 13 13 13 13 13 13 13 14 14 15 16 17 17 16 16 16 17 17 17 17 17 17 17 17 16 17 17 17 17 17 17
20 19 16 16 17 18 20 19 18 18 17 17 17 16 14 13 14 15 15 14 14 14 14 14 14 15 16 16 16 17 17 17 17 18 18 18 18 18 18 18 18 18 18 18 18 19 19 19 19
20 19 16 16 16 18 20 19 18 18 18 18 17 17 15 15 15 16 16 16 16 15 15 15 15 16 16 17 18 19 18 18 19 19 19 18 18 19 19 19 19 19 19 19 19 20 20 20 20
20 18 14 18 19 18 20 18 18 17 18 19 18 17 16 15 16 16 17 17 17 16 16 17 16 17 17 18 19 19 19 19 20 20 20 20 20 20 20 20 21 21 20 21 21 21 21 21 21
20 17 18 21 21 22 20 19 18 18 18 19 19 18 16 15 16 17 18 17 17 17 18 18 18 19 19 19 19 20 20 20 21 21 22 21 21 21 21 21 22 22 22 22 22 22 22 22 22
20 19 19 20 24 23 18 16 16 18 18 18 18 18 17 16 17 18 18 18 18 19 19 19 19 21 21 21 20 21 22 22 22 22 23 22 22 22 22 23 23 23 23 23 23 23 23 23 24
18 19 19 21 19 18 18 14 15 18 18 19 19 19 18 18 19 19 19 19 19 19 19 20 21 22 22 22 22 21 22 22 22 22 23 24 23 23 24 24 24 25 25 25 24 24 24 24 25
16 17 18 18 17 18 18 15 17 19 19 19 19 19 20 20 20 20 21 20 21 21 21 21 22 23 23 23 24 23 23 24 24 24 25 25 24 25 25 25 26 25 25 25 25 25 24 24 24
17 16 17 16 18 18 16 16 18 20 19 19 21 20 20 20 20 22 22 21 22 22 22 23 23 23 23 23 25 25 24 25 25 26 26 26 26 26 26 26 26 26 25 25 25 25 26 25 25
14 15 15 15 16 16 15 17 20 20 21 21 22 22 22 22 21 20 21 21 21 21 21 22 22 22 23 24 26 27 26 26 26 26 27 27 27 27 26 26 26 27 26 26 26 27 26 26 26
13 14 14 15 16 14 15 18 20 22 21 20 22 23 21 21 22 21 20 20 20 20 21 21 22 23 23 25 26 27 27 28 28 28 28 28 28 27 26 26 27 26 26 27 27 27 27 27 26
11 13 15 15 16 14 15 18 20 22 21 21 23 22 22 22 22 22 21 21 21 21 21 21 22 23 24 26 27 28 28 29 29 29 29 28 27 27 27 27 27 27 27 27 27 27 27 27 27
13 15 14 15 16 15 16 18 20 19 22 23 23 22 22 22 22 22 21 21 21 21 21 22 23 25 26 27 28 29 30 30 30 31 30 29 28 28 29 29 29 28 28 28 27 27 28 28 28
11 13 13 13 15 16 17 18 19 20 22 23 23 22 22 23 22 23 23 23 24 23 24 24 25 26 27 28 29 29 30 30 30 30 29 29 29 29 29 29 28 28 28 28 27 28 28 28 28
11 12 11 14 16 17 17 18 21 23 23 23 24 23 22 23 24 24 24 24 24 24 24 25 26 27 28 28 29 30 30 31 30 30 29 28 28 29 29 28 28 28 28 28 29 29 28 28 27
11 13 13 15 16 16 18 20 20 23 23 22 24 24 23 22 25 25 24 25 24 25 25 26 26 27 28 29 30 30 31 30 29 29 29 28 28 28 29 29 28 28 28 28 28 28 28 28 27
13 13 15 14 15 17 18 21 21 22 22 22 22 24 24 23 25 23 24 24 24 24 25 26 27 28 29 30 29 29 30 30 29 28 29 29 29 29 29 29 29 28 28 27 27 28 28 28 27
14 13 12 12 15 19 18 20 22 22 22 22 23 22 22 23 24 23 23 23 24 24 25 26 27 28 29 28 28 29 29 28 29 29 29 30 29 29 29 29 28 27 27 27 27 26 26 26 26
12 10 11 13 15 18 18 19 22 22 22 23 23 22 23 23 23 23 23 23 23 24 25 26 27 28 28 28 28 29 29 29 29 29 29 29 28 28 28 27 27 26 26 26 26 26 26 25 25
11 10 13 16 16 16 17 18 19 21 22 23 24 23 23 24 22 22 21 22 23 24 25 26 27 28 27 28 28 29 29 29 29 28 27 26 26 26 26 25 25 25 25 26 26 26 27 26 26
9 10 13 17 17 17 17 21 21 19 20 21 22 22 22 22 22 21 22 22 23 24 25 26 27 28 27 27 28 28 28 27 27 26 26 25 25 25 25 25 24 24 24 25 25 26 26 26 26
11 13 14 16 17 18 18 18 21 19 19 20 21 20 20 21 21 21 22 23 23 24 25 25 26 27 27 27 27 26 26 26 26 25 25 25 25 24 24 24 24 24 24 24 25 25 25 25 25
13 15 16 17 18 18 20 20 18 18 18 19 21 20 20 21 22 21 22 22 23 23 24 24 25 25 26 26 26 26 26 25 25 25 25 25 24 24 24 24 24 23 23 24 24 24 24 24 23
15 16 17 17 18 18 20 23 21 19 18 19 20 21 22 22 22 22 22 22 22 23 23 23 24 24 25 25 24 24 25 25 25 25 25 24 24 23 24 24 24 24 24 24 24 23 23 23 23

GEFSSGP_500_meanwind_168.txt.gz
Wind_Speed
17 16 15 15 14 13 12 10 8 7 5 3 5 6 6 5 5 5 5 5 6 6 6 6 7 7 8 8 9 9 10 11 11 12 13 13 13 13 13 13 13 13 13 13 13 13 13 13 12
18 17 17 16 15 15 13 11 10 7 6 5 6 7 7 6 6 7 6 7 7 7 7 7 8 8 9 9 9 10 11 12 12 13 13 14 14 14 14 14 14 14 14 14 14 14 14 14 14
20 19 19 17 16 16 14 12 11 9 7 7 8 8 8 7 6 7 7 7 8 8 8 9 10 10 10 10 10 11 12 12 13 14 14 14 14 15 15 15 15 15 15 15 15 15 15 15 15
21 20 19 18 17 16 15 14 13 10 9 9 10 10 10 8 8 8 8 8 8 9 9 10 10 10 11 11 11 12 12 13 13 14 15 15 15 15 15 15 15 15 15 15 15 16 16 16 16
21 21 19 18 17 16 14 14 12 11 11 10 10 11 11 10 9 9 9 9 9 9 10 10 11 11 12 12 12 13 13 13 14 14 15 15 16 16 16 16 16 16 16 16 16 16 16 17 17
22 21 20 19 18 15 14 14 13 11 11 11 11 12 12 11 8 9 10 10 10 10 11 11 12 12 13 13 13 13 13 14 15 15 15 16 17 17 17 17 17 18 18 18 17 17 17 17 18
22 21 21 20 19 16 14 15 14 12 12 12 13 14 15 14 10 10 12 12 12 11 12 12 12 13 13 14 14 14 14 15 15 16 16 17 17 18 18 18 19 19 19 18 18 18 18 19 19
22 22 21 20 18 17 16 15 14 13 12 14 15 16 15 16 13 11 11 11 12 12 13 14 14 14 14 14 14 15 16 16 16 17 17 18 19 19 19 20 21 21 20 20 19 19 19 20 20
21 22 21 20 18 16 16 17 17 16 15 15 15 16 15 15 14 13 12 12 13 14 14 15 15 15 16 16 16 16 17 17 17 18 19 20 21 21 21 21 22 22 22 21 21 21 21 21 22
22 21 21 20 19 16 17 17 17 17 15 15 15 16 16 15 14 15 15 15 15 15 16 16 16 17 17 17 17 17 17 18 18 20 20 20 21 21 22 23 23 23 22 23 23 23 23 23 23
21 21 21 21 20 19 19 18 18 18 17 17 17 16 16 17 17 16 15 16 16 16 17 18 18 18 18 18 19 18 19 19 20 21 21 21 21 22 23 23 24 24 23 23 24 24 24 25 25
20 20 20 21 20 19 19 19 17 17 16 15 16 15 16 17 17 16 16 15 16 18 18 19 19 20 20 20 20 20 20 20 20 21 22 22 22 22 23 23 23 24 24 24 24 24 25 25 25
19 19 19 19 18 18 19 18 19 19 19 18 17 16 17 16 17 17 18 18 17 17 19 19 19 19 21 21 20 20 20 20 21 21 22 22 22 23 24 24 24 25 25 25 25 24 25 25 25
17 18 17 17 17 18 18 18 19 20 19 18 17 17 17 17 17 18 19 19 19 19 19 19 20 21 21 20 20 21 21 21 22 22 23 23 24 24 24 25 25 25 25 25 25 25 25 26 26
17 17 16 15 15 16 19 18 19 19 19 18 18 18 19 19 19 19 19 19 20 20 20 21 21 21 21 20 20 20 20 21 22 22 23 24 24 25 25 25 26 26 25 25 25 25 25 26 26
17 16 16 15 15 16 17 17 19 20 20 19 19 19 19 19 20 20 20 20 20 20 20 20 20 20 21 20 20 21 21 22 23 23 24 25 25 25 26 26 26 26 26 26 26 27 27 27 27
15 15 15 15 15 16 16 17 17 18 18 18 18 18 20 19 21 22 21 20 20 20 19 19 19 20 20 20 22 23 23 24 24 24 25 26 26 26 26 27 27 27 27 27 26 27 27 27 27
13 13 14 13 14 16 17 17 17 17 17 17 18 18 19 20 21 22 20 19 19 19 19 20 19 20 21 21 22 24 25 25 26 26 26 26 27 27 27 28 27 27 27 28 27 28 28 28 28
11 12 13 14 14 16 16 17 18 18 19 18 19 20 21 20 21 20 18 19 19 20 20 21 21 21 22 23 24 24 25 25 25 26 26 27 27 27 28 28 28 28 28 27 28 28 28 28 29
10 11 11 12 13 15 16 17 19 20 20 20 20 20 22 22 22 22 19 19 20 21 19 20 20 21 22 24 25 24 25 25 26 27 27 28 28 28 27 28 27 27 27 27 27 27 27 28 28
8 9 11 12 13 15 16 17 17 19 20 20 20 20 20 22 23 21 22 22 21 21 20 19 19 20 22 23 23 23 25 26 26 27 27 28 28 28 28 27 26 26 26 26 26 26 25 26 26
8 9 11 12 14 14 16 17 17 19 20 21 21 22 21 22 23 23 21 19 18 19 19 20 20 20 21 22 23 24 25 25 26 26 27 27 28 28 28 27 26 25 26 26 26 25 25 25 25
7 10 12 14 15 15 15 18 17 19 19 20 21 22 22 22 21 19 18 19 19 19 19 21 21 21 22 22 23 25 25 26 26 27 26 26 27 27 27 26 26 26 26 26 25 26 25 25 24
8 10 12 13 14 15 15 17 17 16 17 18 18 19 20 20 19 18 17 17 18 18 20 21 21 21 22 23 24 25 25 26 26 26 26 26 27 26 26 26 25 25 25 26 25 25 24 24 24
11 12 13 13 14 14 15 17 16 17 16 15 15 15 16 17 17 17 17 18 17 18 19 20 21 21 22 23 24 25 25 25 26 26 26 26 26 26 25 25 24 24 25 25 24 23 23 23 23
12 13 14 15 15 16 16 17 17 17 16 16 16 15 15 15 16 17 17 17 18 19 20 20 21 22 23 24 24 25 25 25 25 25 26 25 25 24 23 23 23 24 24 23 23 22 21 22 23
12 14 15 16 17 17 18 18 18 17 16 17 17 17 16 16 16 16 16 17 18 18 19 20 21 21 22 23 24 25 24 24 24 24 25 24 24 23 23 23 23 22 22 22 22 21 20 21 21
14 16 17 18 18 18 17 18 18 18 17 16 17 15 15 15 16 17 17 18 18 18 18 20 20 21 22 24 24 24 23 23 23 24 24 23 23 23 22 22 22 21 21 20 20 20 19 19 20
15 16 18 19 19 19 19 18 17 17 16 17 16 14 15 15 15 17 18 19 18 19 19 20 20 22 23 24 24 23 23 23 23 23 23 23 22 22 22 21 21 20 20 20 19 19 19 19 19
14 15 17 18 18 18 20 19 18 17 16 16 16 15 15 16 16 17 18 19 18 19 20 20 20 21 22 23 23 22 22 22 22 22 22 22 22 21 21 21 20 20 19 19 19 18 18 18 19

GEFSSGP_500_meanwind_174.txt.gz
Wind_Speed
16 16 15 14 13 12 11 8 7 6 5 3 3 2 1 2 2 3 4 5 6 7 8 9 9 9 9 9 10 10 10 10 11 11 12 12 12 13 13 14 13 13 14 14 14 14 15 14 14
18 17 16 15 14 13 11 10 9 8 6 5 5 4 3 3 3 4 5 6 7 8 9 10 10 10 10 10 10 10 10 11 11 12 12 13 14 14 14 15 15 15 15 15 15 15 15 15 15
20 19 18 16 15 13 12 12 11 8 8 7 5 5 5 5 5 6 7 7 8 9 10 10 11 11 11 11 11 11 11 12 12 13 13 14 14 15 15 15 16 16 16 16 16 16 16 16 16
21 20 19 17 16 14 13 13 11 10 10 8 7 7 7 7 7 8 8 9 9 10 11 11 11 12 12 12 12 12 12 13 13 14 14 15 15 15 16 16 16 17 17 17 17 17 17 17 17
22 21 19 18 16 15 14 13 13 12 11 10 9 8 8 8 9 9 10 11 10 11 12 12 12 12 12 13 13 13 13 13 14 14 15 15 16 16 17 17 17 18 19 19 19 18 18 18 18
22 21 20 18 17 16 15 14 13 12 11 11 10 10 9 9 10 11 11 12 12 12 13 13 14 13 13 13 14 14 14 14 15 15 16 16 16 17 18 18 19 19 20 20 20 20 19 19 19
21 20 20 18 17 16 16 15 15 14 13 12 10 10 11 10 11 12 13 14 14 14 15 15 15 14 14 14 15 15 16 16 17 17 17 18 18 18 19 20 20 20 20 21 21 21 21 21 21
21 20 19 18 17 17 17 17 15 14 13 12 11 11 10 11 12 13 14 15 14 15 15 15 15 16 16 16 16 17 17 17 18 18 19 19 19 20 20 21 21 21 21 22 22 23 23 22 22
21 20 20 18 18 17 18 17 16 15 14 13 12 12 12 12 13 14 15 16 15 15 15 16 17 17 17 17 18 18 18 18 19 19 20 20 20 21 21 21 22 22 22 23 23 24 24 23 23
20 20 20 19 18 18 18 19 18 16 15 14 13 14 15 14 15 15 16 16 16 16 17 18 19 19 19 19 19 19 20 19 20 20 20 21 21 22 22 22 22 22 23 24 24 25 25 25 24
19 19 19 20 19 19 19 19 18 16 16 15 14 14 15 16 16 17 17 17 15 16 18 19 20 21 20 18 19 20 21 21 21 21 21 22 22 23 23 23 23 23 24 25 25 26 26 26 25
18 18 18 19 19 19 19 19 18 17 17 17 16 15 16 18 17 18 18 18 17 17 19 20 21 21 20 19 20 20 20 21 22 22 22 23 23 24 24 24 25 25 25 26 26 26 26 27 27
16 17 17 17 17 18 18 18 18 17 19 18 17 16 18 19 18 18 19 18 18 18 19 19 19 20 20 20 21 21 21 21 22 22 23 23 24 24 25 25 26 26 27 27 28 27 27 27 28
15 16 16 16 17 17 18 17 18 18 19 19 18 18 17 18 19 19 18 19 18 19 19 19 20 20 20 21 22 23 23 23 23 23 23 24 24 25 26 26 27 27 27 27 28 28 28 28 29
15 15 16 17 17 17 17 18 18 18 19 18 19 19 18 18 19 19 19 19 20 20 19 19 20 21 21 22 22 23 23 24 24 24 24 25 25 26 26 27 27 28 28 29 29 28 28 28 29
15 15 15 16 16 17 17 18 18 19 20 21 21 21 21 20 20 21 20 20 20 19 19 19 20 21 22 23 23 23 23 24 25 25 25 26 26 26 26 27 27 29 29 29 29 28 28 28 29
14 15 16 17 16 16 17 18 18 19 20 21 20 21 22 21 21 20 21 21 20 19 20 20 21 21 22 23 23 22 23 24 25 26 26 26 26 26 27 28 29 30 29 29 29 29 28 28 29
13 15 16 17 17 17 18 18 18 19 19 20 20 20 20 20 20 20 21 21 20 19 19 20 21 21 21 21 22 22 23 24 24 25 26 27 27 27 28 29 30 30 30 30 30 29 29 29 29
14 15 16 17 17 18 18 18 18 19 20 19 19 20 20 19 19 20 21 20 19 18 19 19 20 21 21 21 22 22 22 23 24 25 27 27 27 28 29 29 29 30 30 30 30 30 30 29 29
14 15 15 17 17 18 18 18 18 19 19 19 19 19 20 20 20 20 20 19 18 19 20 20 20 20 19 20 21 22 22 22 23 24 26 27 28 28 28 29 29 30 30 30 30 30 30 29 30
13 13 15 16 17 18 18 18 19 19 19 19 20 20 19 19 20 20 20 19 19 19 19 20 20 20 20 19 20 21 22 23 24 25 26 26 27 27 28 29 29 30 30 29 30 30 30 30 29
13 14 15 16 17 18 18 19 18 19 20 20 19 19 18 19 20 19 19 19 18 18 18 19 20 20 19 19 20 21 22 23 24 25 26 26 26 27 28 29 29 30 30 29 29 29 30 30 29
14 14 15 16 16 17 18 19 17 18 19 20 19 18 18 18 18 17 17 17 18 18 18 19 19 19 20 19 20 21 22 23 24 24 25 25 26 26 27 28 28 28 28 28 29 29 30 29 28
14 14 15 16 17 16 17 19 18 18 18 18 18 18 18 18 18 18 18 18 18 19 19 20 20 20 19 19 20 21 23 24 24 24 25 25 26 26 27 27 27 27 27 27 28 27 27 27 26
14 15 16 16 17 17 17 18 18 18 17 17 17 17 17 18 18 18 17 18 18 20 20 20 19 19 19 20 21 22 23 23 23 24 25 25 26 26 26 26 27 26 26 25 26 25 25 26 26
15 16 17 17 18 17 16 17 17 17 16 17 17 18 17 17 17 17 17 18 18 19 19 19 18 19 19 20 21 23 23 23 24 25 25 25 25 25 25 26 26 25 24 24 24 24 23 23 24
15 16 18 19 18 18 17 16 16 17 17 16 17 17 17 17 18 18 18 19 18 18 18 18 17 19 20 21 22 22 23 24 24 25 24 25 25 25 25 25 25 24 23 23 22 23 23 23 23
17 17 18 20 21 20 18 17 17 17 17 17 17 17 17 17 17 16 17 18 18 17 17 18 18 18 20 21 22 22 23 24 24 24 24 24 24 25 25 25 24 24 23 22 21 21 21 22 22
16 18 19 20 21 22 21 18 18 18 18 19 18 17 16 16 17 17 18 18 18 17 18 18 18 19 20 21 21 22 23 23 24 24 24 24 24 24 24 24 24 23 23 22 21 21 21 21 21
17 18 20 20 20 20 21 18 18 18 18 19 18 18 17 17 17 17 17 17 17 17 18 18 18 19 20 21 22 23 24 23 23 24 24 24 24 23 23 23 23 23 23 22 22 21 21 21 21

GEFSSGP_500_meanwind_180.txt.gz
Wind_Speed
14 13 12 11 9 9 9 7 7 6 6 6 5 5 4 4 4 3 3 3 3 4 4 5 6 6 7 7 8 8 8 8 8 8 8 9 9 9 9 9 9 9 9 10 10 11 11 11 11
15 14 13 12 11 10 10 9 8 8 7 6 6 6 6 5 5 5 4 4 5 5 6 6 7 7 7 8 9 9 9 9 9 9 10 10 10 10 10 10 10 10 10 11 11 11 12 12 12
16 15 14 12 12 11 10 10 9 8 7 7 7 7 7 6 6 6 6 6 6 7 7 7 7 8 8 9 10 10 11 10 10 11 11 11 11 11 11 11 11 12 12 12 12 13 13 13 13
17 15 14 13 12 11 11 10 8 8 7 7 8 9 8 8 7 7 7 7 8 8 8 8 9 9 10 11 12 12 12 12 12 12 12 12 12 12 12 13 13 13 13 14 14 14 14 14 14
18 16 14 13 12 11 10 10 9 8 8 8 9 10 10 9 8 8 8 9 10 9 10 10 10 11 12 12 13 13 13 13 13 14 14 14 14 14 14 14 14 14 14 15 15 15 15 15 15
18 17 15 14 13 11 10 10 10 9 9 9 10 11 11 11 10 9 10 10 11 11 11 11 12 12 13 14 14 14 14 15 15 15 15 15 15 16 16 16 15 15 16 16 16 16 16 16 16
18 17 16 14 13 12 11 10 10 10 11 11 11 11 11 11 11 12 12 12 12 13 12 13 13 14 15 16 16 16 16 16 17 17 17 17 17 17 17 18 17 17 17 17 18 17 17 17 17
17 17 16 15 13 13 12 12 11 11 11 12 12 12 13 12 12 13 13 12 13 14 15 15 15 16 16 17 17 18 18 18 18 18 18 18 18 19 19 19 18 19 19 19 19 19 19 19 20
17 16 16 15 14 14 13 13 12 11 12 13 13 13 14 13 14 14 14 13 14 15 16 16 16 17 17 18 19 19 19 19 19 19 19 19 20 20 20 20 21 21 21 21 21 20 21 21 22
16 15 16 16 15 14 13 13 13 12 13 13 13 14 15 15 15 15 15 15 15 16 17 18 18 18 18 19 20 21 21 21 20 20 21 21 21 22 22 22 22 23 23 23 22 23 23 23 23
15 15 16 15 15 15 14 14 13 14 14 13 14 14 15 16 16 16 16 17 17 17 18 19 19 19 19 20 21 21 22 22 22 22 23 23 23 23 23 24 24 24 24 24 24 24 24 24 24
14 14 14 14 14 14 14 14 14 15 16 15 15 16 17 17 17 17 17 17 17 18 18 19 21 21 21 22 22 22 23 23 23 23 23 24 24 24 25 26 26 26 26 26 26 26 26 26 26
12 13 13 13 13 14 14 13 14 15 15 16 16 18 18 18 20 20 19 19 19 20 20 20 21 22 22 22 23 23 23 24 25 25 24 25 25 26 26 27 27 27 28 28 27 27 27 27 27
11 12 12 12 12 13 13 13 13 13 14 16 17 19 19 20 22 22 21 21 21 21 22 22 23 23 23 23 23 24 24 25 25 25 25 25 26 27 27 27 27 28 28 29 29 29 28 28 28
10 11 11 11 12 12 13 14 14 13 14 16 17 19 20 22 23 22 22 22 22 23 23 24 24 24 24 24 24 24 24 25 25 26 26 27 28 28 28 28 29 29 30 30 29 29 29 30 30
9 9 11 12 12 12 12 14 14 14 15 17 18 20 21 22 22 22 23 24 24 23 24 24 25 25 25 25 24 24 24 25 26 27 28 28 28 29 28 28 29 30 31 31 30 31 31 31 31
9 10 11 12 13 13 13 14 14 15 16 18 19 19 20 22 23 23 24 23 23 23 24 25 25 25 26 26 25 24 25 25 26 27 28 27 28 28 28 29 30 31 32 32 32 31 32 32 32
10 10 11 12 13 13 14 15 15 15 16 17 18 19 20 21 21 22 22 22 22 23 24 25 25 25 25 25 25 24 24 25 25 26 26 27 28 28 28 29 30 31 31 31 31 32 31 32 33
10 10 11 12 13 14 14 15 15 16 17 17 18 19 20 20 21 21 21 22 22 23 24 25 24 24 24 24 24 24 25 25 26 26 26 26 26 27 28 29 30 31 31 31 31 31 31 31 32
9 10 11 12 13 14 15 14 15 17 17 17 18 19 19 20 21 21 21 22 22 23 23 23 22 23 23 23 23 24 25 26 26 26 26 25 26 26 27 28 29 29 30 30 30 30 30 31 31
9 10 11 12 13 14 15 15 16 17 17 18 19 19 19 20 20 20 21 21 21 22 21 22 22 22 23 23 23 24 25 25 25 25 25 25 25 26 26 26 27 28 29 28 28 28 29 30 30
10 11 12 13 14 15 15 16 16 17 18 19 19 19 19 19 19 20 20 21 20 20 21 22 22 22 22 23 24 24 25 25 25 25 25 25 25 25 25 26 26 27 27 27 28 28 28 28 28
10 11 12 13 14 14 14 15 15 16 17 18 19 19 19 18 19 20 21 20 19 19 20 21 21 22 22 23 23 24 25 24 25 25 25 25 25 25 25 25 26 26 26 26 27 27 27 28 27
10 11 12 12 12 13 14 15 15 16 17 18 18 18 18 19 19 20 20 19 19 20 20 20 22 22 22 22 23 24 25 25 25 24 25 25 26 25 25 26 26 26 26 26 26 27 27 27 26
10 10 10 10 11 13 15 16 17 17 17 18 18 18 18 19 20 20 19 19 20 20 20 20 21 22 22 22 22 23 23 24 23 22 23 25 25 26 26 26 25 25 25 25 26 27 26 26 26
11 10 11 12 13 14 15 16 18 17 16 17 18 18 18 18 18 18 18 19 20 20 21 21 21 22 21 21 22 22 22 22 22 22 22 23 23 24 25 25 25 25 25 25 26 26 26 26 25
13 12 12 13 14 15 16 17 18 18 17 17 18 18 18 18 18 18 18 19 19 20 21 21 21 21 21 21 21 21 21 22 22 22 22 23 24 24 24 24 24 25 24 25 25 25 25 25 24
14 14 14 14 16 17 18 18 18 19 19 19 19 18 18 18 18 19 19 19 20 20 19 19 20 20 20 21 21 21 22 21 22 22 22 23 23 23 23 24 24 24 23 23 24 24 24 24 24
15 15 16 16 18 18 19 19 20 20 21 21 20 20 19 19 19 19 20 20 20 19 18 19 19 19 19 19 20 20 21 21 21 22 22 22 22 22 22 22 23 23 22 22 23 23 23 23 23
16 16 16 18 19 19 20 20 21 21 21 22 22 21 20 20 20 20 19 19 18 18 18 18 18 18 18 18 18 19 19 19 20 20 21 21 21 21 22 22 21 21 21 22 22 22 22 22 22

GEFSSGP_500_meanwind_186.txt.gz
Wind_Speed
10 9 8 6 5 2 1 2 4 7 8 9 7 7 7 6 6 7 7 6 6 7 7 8 8 8 8 9 9 10 10 10 10 10 10 10 11 11 11 11 11 11 11 11 11 11 12 12 12
11 10 9 7 4 2 2 4 5 8 11 9 7 7 8 7 7 8 8 8 8 8 9 9 10 10 10 10 10 11 11 11 11 11 11 11 12 12 12 12 12 12 12 12 13 13 13 13 13
12 11 10 7 4 4 3 5 7 9 10 8 8 8 9 8 9 10 10 10 10 9 10 10 11 11 11 10 11 12 12 13 13 13 12 12 13 13 13 13 13 13 13 13 14 14 14 14 14
13 12 10 7 4 5 4 6 9 9 11 9 9 9 10 10 10 11 11 11 12 11 11 12 12 12 12 12 13 13 14 14 14 14 14 14 14 14 14 14 14 14 14 14 15 15 15 16 16
14 12 8 6 5 6 6 9 9 8 10 10 9 11 11 12 11 13 13 13 13 13 13 13 13 13 13 14 14 15 15 16 16 16 16 16 16 16 16 16 16 16 16 16 16 16 17 17 17
14 11 9 7 8 7 9 10 10 10 10 12 11 11 12 13 13 12 13 14 14 15 15 15 15 14 15 15 16 16 17 17 17 18 18 18 18 18 18 18 18 18 18 18 18 18 18 18 19
14 12 10 9 8 8 9 11 12 12 10 12 13 13 13 15 14 14 14 15 16 17 16 17 16 16 16 17 17 18 18 18 18 19 19 19 19 19 19 19 20 19 19 19 19 20 20 20 20
14 12 12 10 9 10 11 12 13 12 12 14 15 14 15 16 16 15 16 17 18 19 18 18 17 18 18 18 19 19 19 19 20 20 20 20 20 20 20 20 21 21 21 21 21 21 22 22 22
12 11 9 9 10 12 13 13 12 13 15 15 15 15 15 17 17 17 18 18 19 19 20 19 19 19 19 20 20 20 20 20 21 21 21 21 21 21 22 21 21 22 22 22 22 23 23 23 23
12 10 10 12 13 13 14 13 14 15 15 15 15 15 17 18 18 18 18 19 20 19 20 20 21 20 20 21 21 21 21 21 22 22 22 22 22 22 23 23 23 23 23 24 24 24 24 25 25
12 12 12 13 14 14 15 14 15 15 16 16 15 17 18 19 19 19 19 19 20 20 21 20 21 21 21 21 22 22 21 22 23 23 24 24 23 24 24 24 24 24 25 25 25 25 25 26 26
12 12 12 13 15 15 15 15 16 16 17 17 17 17 18 20 19 20 21 20 20 22 21 21 22 22 22 22 23 23 23 23 24 24 25 25 24 24 25 25 25 26 26 26 26 27 27 27 27
11 12 11 12 14 15 15 16 16 16 16 17 18 19 19 19 19 21 22 22 22 23 24 22 23 23 23 23 24 24 25 25 25 26 26 25 25 25 25 26 26 27 26 27 28 28 28 28 28
9 10 11 12 13 14 14 15 16 17 18 18 17 17 19 20 20 21 22 22 23 23 23 23 24 24 24 24 24 25 26 26 27 27 26 26 26 25 26 26 26 27 28 29 29 29 29 28 28
8 9 10 12 13 14 14 14 15 18 18 18 18 18 19 20 22 23 23 23 23 23 24 24 25 25 25 26 27 27 28 28 28 28 28 28 27 27 27 27 27 28 28 29 29 29 29 29 29
7 7 8 10 13 13 13 13 14 17 18 18 18 18 20 22 23 23 24 24 24 24 25 25 26 26 27 28 28 29 28 29 29 28 28 28 27 27 28 28 28 28 28 28 29 29 29 30 30
5 7 8 10 13 14 14 14 15 18 18 19 19 20 21 23 24 24 23 24 24 24 25 25 26 27 28 28 28 28 29 28 29 28 28 28 27 27 27 27 28 28 28 28 29 29 30 30 30
6 8 9 11 12 14 14 15 15 17 18 19 20 22 22 23 24 24 23 23 23 24 24 26 26 27 28 28 28 29 28 28 28 28 27 27 26 26 27 27 27 28 28 28 29 29 29 30 30
7 10 10 9 11 13 15 16 15 17 20 19 20 21 22 23 24 23 23 24 24 24 24 25 26 27 28 28 28 28 27 27 27 27 27 27 26 26 27 28 27 28 28 29 29 29 29 29 30
9 10 10 10 12 13 15 16 15 16 19 20 21 21 21 21 22 22 23 23 23 23 24 25 26 27 28 28 27 27 27 27 27 27 25 24 25 26 27 27 28 29 29 29 30 29 29 30 30
10 10 9 11 12 12 13 15 16 17 19 20 22 22 23 22 23 23 22 23 23 23 24 25 26 27 27 27 27 27 27 27 26 26 26 26 26 26 27 27 28 29 30 29 29 29 30 30 30
9 9 11 12 12 13 13 14 17 18 19 21 21 22 23 23 24 24 24 24 24 24 25 26 26 27 27 27 27 28 27 26 26 27 26 26 26 26 26 27 28 29 29 29 29 29 29 30 30
10 10 11 11 10 11 11 15 19 19 20 21 22 22 23 25 25 25 24 24 24 25 25 26 26 27 26 26 26 26 26 26 25 26 26 25 25 26 27 28 28 28 28 28 28 28 28 29 29
11 11 10 10 10 11 12 15 19 19 20 21 23 23 26 26 26 26 25 25 26 27 27 26 26 26 25 25 25 26 26 26 25 25 26 25 26 26 27 27 27 27 27 27 26 26 27 28 27
10 11 11 9 10 11 12 15 19 21 22 23 24 25 27 26 26 25 26 26 27 27 27 27 26 25 25 25 25 25 25 24 24 25 26 26 26 25 26 26 26 26 26 26 26 26 26 27 27
11 11 11 12 12 12 12 15 20 22 23 23 24 26 26 26 26 26 26 27 27 27 27 26 25 25 25 25 25 25 24 24 24 25 25 26 26 24 24 25 25 26 26 26 26 27 27 27 26
12 12 12 13 13 13 13 15 20 23 23 23 25 26 27 27 27 27 26 26 26 26 25 25 25 25 25 24 24 24 23 23 24 24 25 24 23 23 23 24 25 25 26 26 26 26 26 26 26
12 13 14 13 13 14 13 16 21 24 26 27 26 26 28 28 27 27 27 26 25 25 25 25 25 24 24 23 23 23 23 22 23 22 22 21 21 21 21 22 23 24 25 26 26 26 26 25 25
14 14 15 15 15 16 18 19 22 24 26 27 27 27 27 27 27 25 26 26 25 24 25 25 23 23 22 22 21 21 21 21 21 21 21 21 21 20 20 21 22 23 24 24 25 25 24 24 25
14 15 16 18 18 19 21 21 23 26 27 28 28 27 27 27 27 26 25 24 24 24 24 23 22 22 21 20 20 19 19 19 20 20 20 21 21 20 21 21 22 23 24 24 25 25 24 24 24

GEFSSGP_500_meanwind_192.txt.gz
Wind_Speed
12 11 9 7 6 4 2 2 1 0 0 2 3 4 4 4 4 4 5 6 6 6 6 7 7 6 7 7 8 9 9 10 10 10 11 11 12 12 13 13 13 13 14 14 14 14 14 14 14
13 13 11 9 6 4 2 2 2 1 2 4 4 5 5 5 6 6 6 7 8 7 7 8 8 7 9 9 9 10 10 11 11 11 12 12 13 13 13 14 14 14 15 14 14 14 14 15 15
14 13 12 9 7 5 3 3 4 3 4 4 5 7 8 6 6 7 7 8 9 8 8 9 9 9 11 10 10 11 12 12 12 13 13 13 14 14 14 15 15 15 15 15 15 15 15 16 16
14 14 12 10 7 6 5 5 3 4 5 5 7 9 9 8 7 8 9 10 10 9 9 9 10 11 10 11 12 13 13 14 14 14 14 14 14 15 15 15 16 16 15 16 16 17 17 17 17
16 14 12 9 7 5 4 5 4 5 6 7 7 8 9 9 9 9 9 10 10 10 10 11 12 12 12 13 14 14 14 15 15 15 15 15 15 16 16 16 16 16 16 16 17 17 18 18 18
15 14 12 9 7 6 4 3 4 5 6 8 9 9 10 10 9 8 10 11 12 12 13 13 14 14 15 15 16 16 16 16 16 16 16 16 16 17 17 17 17 17 17 18 18 18 19 19 19
15 13 11 9 8 7 5 5 6 4 7 9 9 10 12 11 10 10 11 11 12 13 14 14 14 15 16 16 17 16 16 16 16 16 16 16 17 17 18 18 18 19 19 19 19 19 20 20 20
15 14 12 10 9 7 6 5 5 6 9 9 9 12 12 13 13 13 12 12 13 14 14 14 15 16 16 16 17 17 18 18 17 17 17 17 17 18 18 19 19 19 19 20 20 20 20 21 21
14 14 13 11 10 7 8 6 6 8 10 12 12 12 13 14 14 14 13 14 14 14 15 14 15 16 17 17 18 18 19 19 18 18 18 18 18 19 19 19 19 20 20 21 21 21 21 21 22
14 14 12 11 10 9 9 8 8 10 11 13 14 14 14 16 17 15 15 15 15 16 16 16 16 17 18 18 19 19 19 20 19 19 20 20 20 20 20 19 20 21 21 21 22 22 22 22 23
13 13 12 11 9 10 10 9 9 11 11 13 14 16 16 18 17 17 16 16 17 17 18 19 18 18 18 19 20 20 21 21 21 21 22 22 22 21 21 21 21 21 22 22 23 23 23 23 23
11 11 12 11 9 9 9 10 11 12 12 14 15 16 17 18 18 17 18 17 18 18 19 19 19 19 19 19 20 21 22 22 22 23 23 23 22 22 22 22 22 22 22 23 23 23 23 23 24
10 9 9 10 8 9 9 11 11 13 14 15 16 17 17 18 19 20 20 19 19 20 20 20 20 21 21 21 22 22 22 22 22 23 23 22 22 22 23 23 23 22 22 23 23 23 24 25 25
9 9 9 9 8 7 8 10 12 13 14 15 17 17 18 19 20 21 21 20 20 20 19 20 21 21 21 22 23 23 23 23 23 22 23 23 23 23 23 23 23 23 23 23 24 25 25 25 25
9 10 10 9 8 8 9 11 12 13 14 16 17 18 19 19 21 22 22 22 21 20 20 21 21 22 22 22 22 23 22 22 23 24 24 24 24 24 23 22 23 23 24 24 25 25 25 26 26
6 8 8 7 7 8 10 11 12 14 15 17 18 19 19 19 20 22 22 22 22 21 22 22 22 23 24 24 23 23 21 22 24 25 25 24 24 23 22 23 23 24 25 25 25 25 25 25 25
6 6 7 7 8 10 11 11 12 14 16 17 19 19 18 19 20 21 22 22 22 23 23 23 24 25 25 25 24 23 24 25 25 26 25 24 24 24 24 24 25 25 26 25 26 26 26 26 26
4 6 7 8 8 10 11 12 12 14 15 17 19 19 19 20 21 22 22 22 22 23 24 24 24 24 25 25 25 25 25 26 26 25 24 24 24 25 25 24 24 25 25 26 26 26 26 26 26
4 6 8 8 8 10 12 14 14 15 16 17 18 19 20 21 21 22 22 22 23 24 25 24 24 24 25 25 25 26 26 26 25 24 24 24 24 24 24 24 24 24 25 25 26 25 25 26 26
5 7 9 9 10 12 13 15 15 15 16 17 19 20 21 21 22 23 22 23 24 25 25 25 25 25 25 25 26 26 26 25 25 25 24 24 25 24 25 24 24 25 25 25 25 25 25 25 25
8 9 10 10 11 12 15 16 15 15 16 18 19 20 21 22 23 23 23 24 24 25 26 26 25 25 26 26 26 25 25 25 25 25 26 25 24 24 23 23 23 24 24 24 24 25 24 24 25
9 10 11 11 12 11 13 15 15 16 16 17 19 20 23 23 24 24 26 26 26 27 27 27 26 27 27 27 26 25 26 26 25 25 25 24 24 24 24 23 24 25 24 24 24 24 24 24 24
9 10 10 11 12 13 15 16 16 16 17 18 19 21 23 24 25 26 27 27 28 28 27 27 27 28 28 28 27 26 26 25 25 24 24 23 23 23 23 23 24 25 24 23 23 23 23 23 23
10 9 10 11 13 14 14 16 16 17 19 19 20 22 22 24 26 28 27 27 27 27 27 27 27 27 27 27 26 25 25 25 24 24 24 24 22 22 23 24 23 22 22 22 22 22 23 23 24
10 10 10 10 13 14 15 16 16 17 17 19 20 22 24 25 26 27 26 26 27 27 27 27 27 26 26 25 24 23 23 23 23 23 23 22 22 22 23 23 22 21 22 21 22 22 23 23 23
11 11 11 12 13 14 14 15 16 17 18 20 22 23 25 25 25 27 27 26 27 26 26 26 26 25 24 24 23 23 22 21 21 22 21 21 20 21 21 21 20 20 21 21 21 22 22 23 23
12 12 13 12 13 13 14 16 17 18 19 21 22 24 24 25 27 26 26 27 27 26 25 25 26 25 24 23 22 22 21 20 21 21 20 20 19 18 18 18 19 20 21 21 21 21 22 22 23
12 12 12 13 14 14 15 17 18 19 20 22 23 24 25 27 28 27 26 27 27 25 25 25 25 23 23 22 22 21 20 20 19 18 18 18 18 17 18 19 20 20 21 22 21 21 22 22 23
13 13 13 14 15 17 18 18 19 21 22 23 25 26 26 26 26 27 27 27 26 25 25 24 21 21 21 22 22 22 21 20 18 18 17 18 18 17 18 19 20 21 21 21 21 22 22 22 23
13 13 14 15 16 17 19 20 20 21 23 24 25 27 27 26 26 26 26 25 25 25 25 23 23 22 22 22 21 20 19 18 17 17 17 18 18 18 18 18 19 20 20 21 21 22 22 23 23

GEFSSGP_500_meanwind_198.txt.gz
Wind_Speed
10 9 8 7 6 5 3 3 3 2 1 0 1 2 3 4 4 4 4 5 6 7 7 8 8 8 8 8 8 9 9 9 10 9 9 10 10 11 12 12 13 13 13 14 14 13 13 13 13
11 10 9 9 7 6 4 4 3 2 2 1 2 3 4 4 5 5 5 6 7 8 8 9 10 10 10 9 10 10 11 11 11 10 10 11 11 12 13 13 14 14 14 14 14 14 14 14 14
12 12 11 10 8 6 5 4 4 3 3 2 2 3 5 5 5 6 6 6 7 9 10 10 11 11 11 11 11 11 11 12 12 11 11 12 13 13 14 14 14 15 15 15 15 15 15 16 16
13 12 11 10 8 6 4 4 4 4 4 4 3 5 6 6 6 6 6 7 8 9 11 12 12 12 12 12 12 12 12 12 12 12 13 14 14 14 14 15 15 16 16 16 16 16 17 17 17
13 13 12 10 8 7 5 5 5 5 5 5 6 6 7 7 6 7 8 8 9 11 12 13 13 13 12 13 13 13 13 13 13 14 14 15 15 16 16 16 16 17 17 17 17 18 18 18 18
12 13 12 11 9 8 7 6 5 4 5 5 7 7 8 9 9 9 9 9 10 12 13 13 13 12 12 13 14 14 14 14 14 15 15 16 17 17 17 18 18 18 18 18 19 19 19 19 20
12 12 12 11 10 10 9 8 6 4 4 6 6 7 9 10 10 11 11 11 11 12 12 13 13 13 13 14 15 15 15 15 15 15 16 17 18 19 18 19 19 19 19 19 20 20 21 21 21
12 12 12 11 11 10 10 9 7 6 5 6 6 6 7 9 10 11 12 12 12 13 13 14 14 14 14 15 15 16 17 17 17 17 18 18 19 19 19 20 19 19 19 20 20 21 22 22 22
11 11 11 10 11 11 11 10 8 7 6 6 7 6 6 8 10 12 13 14 15 15 15 16 15 15 15 15 16 16 17 17 19 18 19 19 20 20 21 21 20 21 21 21 21 22 22 22 23
11 10 10 10 10 11 11 11 10 9 8 8 8 8 9 10 11 12 13 15 16 16 16 16 16 16 16 16 17 18 18 18 20 20 20 21 21 21 22 22 22 22 22 22 22 22 23 23 23
10 10 10 10 11 12 12 11 11 10 10 10 9 9 10 10 12 13 14 15 16 16 16 16 16 17 17 18 19 19 19 20 21 22 21 21 21 22 22 23 23 23 24 23 23 23 23 23 24
10 10 11 11 11 12 12 12 11 11 10 10 10 10 10 11 12 14 15 16 16 17 17 17 17 17 18 19 20 21 21 22 23 23 22 22 22 23 23 23 23 24 25 24 24 24 24 25 25
10 10 11 11 11 12 14 13 13 12 11 11 11 11 12 13 13 13 15 16 16 17 18 18 19 19 20 21 22 23 23 24 24 25 24 23 23 23 23 24 24 24 24 24 24 24 24 25 25
8 9 11 11 11 13 14 15 15 13 12 13 14 14 13 14 14 15 17 17 17 18 19 19 20 20 21 22 22 24 23 23 24 24 24 24 24 24 24 23 23 23 24 24 24 25 25 26 26
8 8 9 11 12 12 14 14 13 13 13 14 14 14 15 15 16 17 18 19 19 20 21 21 21 22 22 23 23 24 24 25 24 24 24 25 25 25 24 23 24 23 24 24 25 25 26 26 25
7 8 9 10 11 12 13 12 13 14 14 15 15 15 16 16 17 19 20 21 20 21 22 22 23 24 24 24 23 24 24 25 25 25 25 26 26 25 24 24 24 25 25 25 25 27 26 26 26
8 8 9 10 11 11 11 11 12 13 14 16 16 17 18 19 19 21 22 22 23 22 23 23 24 25 25 24 24 25 25 25 26 26 27 27 27 25 25 25 25 26 26 25 25 26 26 26 27
8 8 8 10 11 11 12 12 12 13 15 16 17 18 18 19 20 21 23 23 23 24 25 25 26 26 26 26 27 26 26 26 26 27 27 27 27 27 25 25 26 26 26 26 27 27 27 27 27
8 9 9 10 11 12 13 13 13 14 15 16 17 18 19 20 22 23 23 23 24 25 26 27 27 25 26 27 28 27 27 26 27 27 26 27 27 28 26 26 26 26 26 26 27 26 27 27 27
9 10 11 11 12 13 14 15 14 15 17 18 18 19 20 22 23 23 24 25 26 27 28 28 27 27 27 28 28 27 27 27 27 27 27 27 27 27 27 27 27 26 27 27 27 26 26 26 26
10 10 11 12 13 14 16 16 16 18 18 18 19 20 22 23 24 24 25 26 27 28 28 28 27 28 29 28 28 28 28 28 28 28 27 27 27 27 27 27 27 26 27 26 26 25 25 25 26
9 10 11 12 13 14 15 16 16 17 18 18 19 21 23 24 25 26 27 27 27 27 27 27 28 29 30 30 29 28 28 27 27 27 26 27 26 26 26 26 26 25 24 24 24 25 25 25 25
9 10 11 12 13 15 15 17 16 17 17 18 19 21 23 25 26 27 27 27 27 28 28 29 29 30 31 30 30 28 27 27 26 26 26 25 25 24 24 24 24 24 24 24 25 25 24 24 25
10 11 11 12 13 14 15 17 17 18 18 18 19 21 23 25 26 27 27 27 28 29 30 30 30 31 31 30 31 29 27 26 25 25 23 24 23 22 23 23 23 23 23 23 23 24 24 25 25
11 11 12 13 14 14 15 16 18 18 19 19 20 21 23 25 26 27 27 28 29 30 30 30 31 31 30 30 29 28 26 25 24 23 23 23 23 22 22 22 22 21 21 21 21 22 24 24 25
11 12 12 13 14 14 15 17 18 19 20 20 21 22 24 25 26 27 27 28 29 30 30 29 29 30 29 29 28 27 26 24 24 23 23 23 22 20 20 20 20 20 21 21 21 22 22 24 25
13 13 13 14 15 16 16 16 18 19 20 21 22 23 24 25 26 27 28 28 28 28 28 28 28 28 28 28 28 26 24 24 23 23 22 21 21 19 19 19 20 20 21 21 22 23 23 24 25
14 15 15 14 16 16 17 18 19 19 21 23 24 25 25 25 26 26 26 27 27 27 28 27 27 27 27 27 26 24 22 21 20 19 19 19 19 19 19 19 19 20 21 22 22 22 23 24 25
15 15 15 15 16 18 19 20 21 22 23 24 25 25 25 25 25 25 26 26 27 27 27 26 26 27 26 25 23 21 19 18 18 17 17 18 18 18 18 18 19 20 21 22 22 22 22 23 24
16 16 16 16 17 18 20 21 21 22 23 24 24 24 24 24 25 25 26 26 26 26 25 25 25 25 24 23 20 18 16 16 16 16 16 17 17 17 18 18 18 19 20 21 20 20 21 22 23

GEFSSGP_500_meanwind_204.txt.gz
Wind_Speed
7 6 6 5 4 3 4 4 4 4 3 3 2 1 1 1 1 3 3 3 3 3 4 4 5 6 6 7 8 9 8 8 8 8 8 8 7 7 6 7 8 8 9 9 9 10 10 10 10
8 7 6 6 5 5 5 4 4 4 4 3 2 2 2 2 3 4 4 4 5 5 6 6 6 7 7 8 9 9 9 9 9 9 9 9 9 8 8 9 9 10 10 10 10 11 11 11 11
7 7 6 6 7 7 6 5 5 4 4 3 2 3 3 3 4 5 6 6 6 7 7 7 8 8 9 9 10 10 10 10 10 9 9 9 10 10 10 10 11 11 11 11 12 12 12 12 13
7 6 6 6 8 8 8 7 5 5 4 4 4 3 4 4 5 6 7 7 7 8 8 9 9 9 10 11 11 11 12 11 10 10 10 11 11 11 12 12 12 13 13 13 13 14 14 14 14
7 6 6 7 8 9 8 7 6 6 5 5 5 4 4 5 7 7 8 8 9 9 9 10 10 10 10 11 11 12 12 12 11 11 12 12 13 13 13 14 14 14 15 14 15 15 16 16 16
8 7 6 7 8 9 9 8 7 6 5 6 6 6 6 6 7 8 9 9 9 9 9 10 11 11 12 12 12 12 12 12 12 13 13 14 14 15 15 16 17 16 16 16 17 17 17 17 17
9 8 8 8 9 8 8 8 7 7 6 7 7 6 7 8 8 9 9 10 11 11 10 11 12 13 13 13 13 13 13 13 13 14 14 15 16 17 17 18 18 18 18 18 18 18 18 18 19
9 8 8 8 9 8 8 8 7 7 8 7 7 7 8 9 9 9 10 11 12 13 12 12 13 14 14 14 14 14 14 14 15 15 16 17 18 19 19 19 18 19 19 19 19 19 20 20 20
9 8 8 9 9 9 9 8 8 9 9 9 9 9 9 10 10 11 12 12 13 13 13 13 14 14 15 15 15 16 16 16 16 17 18 19 20 21 21 20 20 20 20 20 20 20 21 21 20
8 8 9 9 9 10 10 10 9 10 10 10 10 10 10 11 11 13 13 13 14 14 14 15 16 16 16 16 17 17 18 18 19 19 19 20 21 22 21 21 21 21 20 21 21 21 21 20 20
8 9 9 9 9 10 10 11 11 12 11 10 11 11 12 13 13 14 15 15 15 16 15 16 17 17 18 18 19 20 20 21 21 22 22 22 23 23 22 22 22 22 21 21 22 22 22 22 21
8 8 8 9 9 9 10 11 12 13 12 12 12 12 13 14 14 15 15 15 16 17 17 18 18 18 19 20 20 21 22 23 23 24 24 24 24 24 23 23 22 22 23 23 24 23 23 23 22
7 7 8 8 8 9 10 11 12 13 14 13 13 13 14 15 15 14 15 16 17 17 18 19 19 20 20 21 21 22 23 24 25 26 25 26 26 25 24 24 24 24 25 24 24 24 24 23 23
7 7 8 9 8 9 9 10 11 12 13 13 13 14 15 15 15 15 16 17 18 18 20 20 20 21 22 22 23 24 24 25 26 26 26 26 26 26 25 24 24 24 25 25 25 24 24 24 24
6 6 7 8 8 8 9 11 12 12 13 13 14 15 15 16 16 16 18 18 19 20 21 21 21 22 23 24 25 26 26 26 26 27 27 27 27 27 26 25 25 26 25 25 26 26 24 24 25
4 5 7 8 9 10 10 12 12 12 13 14 14 15 16 17 17 18 18 19 20 21 22 22 22 22 23 24 25 25 26 27 27 27 27 27 27 27 27 27 26 26 26 26 26 26 25 25 25
3 5 7 9 9 10 11 12 12 12 12 13 14 15 17 18 18 18 18 19 21 23 23 24 24 24 25 26 26 27 27 28 29 29 29 29 29 29 29 28 28 28 28 27 26 26 26 26 26
5 6 8 9 10 9 10 11 12 12 13 14 16 16 18 19 18 19 19 21 23 24 25 25 26 27 28 28 28 29 29 30 30 30 30 30 29 29 29 29 29 29 29 28 28 27 26 26 27
5 6 8 9 10 10 10 11 12 13 14 15 17 18 18 19 20 21 22 23 24 25 25 26 28 28 30 29 30 30 30 31 31 31 31 31 30 30 30 31 29 29 29 28 28 27 26 26 27
6 7 7 8 10 10 11 11 12 13 14 15 17 18 20 20 22 23 23 24 25 26 27 27 29 30 30 30 30 30 30 31 31 31 31 30 30 31 31 31 30 28 28 29 28 26 26 27 27
7 7 8 9 10 11 11 12 12 13 14 16 17 19 20 21 22 23 24 26 27 27 27 27 28 29 29 29 29 28 29 29 29 30 29 29 29 29 29 29 28 26 26 26 26 26 27 27 27
7 9 9 10 10 11 12 13 14 14 15 16 17 19 21 22 24 24 25 26 27 27 27 27 28 29 29 28 27 27 28 28 28 28 28 28 28 27 27 26 25 24 24 24 24 25 25 26 26
7 9 9 10 10 11 12 12 14 15 16 16 18 19 21 21 22 23 24 26 26 27 27 28 27 27 27 26 26 26 27 27 27 28 28 27 27 27 25 25 25 24 23 23 23 24 24 24 25
8 9 9 9 10 11 12 11 13 15 16 17 18 19 20 21 22 23 24 26 26 27 27 27 27 26 25 25 26 26 26 26 26 26 25 25 25 24 24 23 23 22 21 22 22 23 23 23 23
9 9 10 10 10 12 13 13 14 15 16 16 18 19 20 21 22 23 24 25 26 26 26 26 25 25 25 25 26 26 25 25 25 23 22 22 22 22 21 22 22 21 20 21 21 21 22 22 23
9 9 10 11 11 13 14 13 14 15 16 17 18 20 20 21 22 23 24 25 25 25 25 25 25 26 26 26 26 25 25 24 23 22 21 22 21 21 21 20 20 19 19 20 21 21 21 21 21
11 11 11 12 13 13 13 15 16 16 16 18 19 19 20 21 22 23 24 24 24 24 25 25 25 26 26 26 24 23 23 23 22 21 21 20 20 19 19 18 17 18 18 18 19 20 20 21 21
11 12 12 12 12 12 13 15 18 18 18 19 19 20 20 21 22 23 24 24 24 25 25 25 25 26 26 25 24 22 22 21 21 21 20 19 18 18 17 16 17 17 17 17 18 19 19 20 20
12 12 13 13 13 13 14 17 19 19 19 20 20 20 21 21 22 23 24 24 24 24 24 24 25 25 25 24 23 21 21 21 21 20 19 18 18 17 16 15 17 17 16 17 17 18 18 18 19
13 14 14 14 14 14 16 19 19 19 20 21 21 21 21 22 22 23 23 23 23 24 24 24 24 25 24 23 22 21 21 21 20 19 18 17 15 15 15 15 16 16 16 16 17 17 17 17 18

GEFSSGP_500_meanwind_210.txt.gz
Wind_Speed
5 4 3 3 2 2 2 3 3 4 6 7 7 6 7 7 7 8 8 8 9 8 8 7 8 8 8 8 8 8 9 9 10 10 10 11 11 11 11 11 11 11 11 11 11 11 11 11 12
6 5 3 2 1 1 2 4 5 5 7 8 8 8 7 7 8 8 8 9 9 8 8 8 8 9 9 9 9 10 10 11 11 11 11 11 10 11 11 11 12 12 11 11 12 12 12 13 13
6 5 3 2 1 1 4 6 5 6 7 8 9 9 9 9 10 9 9 11 11 10 9 9 9 10 10 11 11 11 11 11 11 12 12 11 12 12 12 12 12 13 13 13 13 13 13 14 14
6 5 2 0 2 3 5 6 6 7 7 8 10 9 9 9 10 10 11 12 13 12 11 10 11 11 11 11 12 12 12 11 12 12 12 13 13 13 13 14 14 14 14 14 14 15 15 15 15
7 5 2 2 6 6 7 8 10 10 9 9 10 9 9 11 10 11 12 13 14 13 13 12 12 13 13 13 13 13 12 13 13 13 13 14 14 15 15 15 16 15 16 16 16 16 17 17 17
7 4 2 5 7 7 8 10 9 10 9 8 10 10 9 11 11 11 12 13 14 14 15 14 14 14 14 14 14 14 14 14 14 15 15 15 16 16 17 17 18 18 17 17 17 17 17 17 17
8 5 4 6 6 8 10 10 8 8 9 10 10 11 11 12 11 11 11 13 14 14 15 15 14 15 16 16 16 16 15 16 16 17 17 17 18 18 19 19 20 20 19 19 19 18 18 17 18
8 6 4 7 9 10 11 10 9 10 10 10 10 10 11 11 12 12 12 13 14 16 16 16 16 16 17 17 17 17 17 18 18 18 19 20 20 21 21 21 21 21 21 20 20 20 19 19 18
6 5 6 8 10 10 12 11 11 12 11 11 9 9 12 14 13 13 14 15 16 17 17 17 18 18 17 17 18 19 19 20 20 20 21 22 22 22 23 23 23 23 23 21 21 21 21 20 20
7 7 8 8 10 10 11 10 11 12 11 11 10 10 13 15 15 14 15 16 17 18 18 18 19 19 19 19 20 20 21 22 22 22 23 24 24 24 24 24 24 24 24 24 23 22 22 22 21
10 8 8 9 11 10 9 10 11 12 12 12 13 14 14 16 16 17 17 17 18 19 19 19 20 20 21 21 22 22 23 23 23 24 25 26 26 26 26 25 25 25 25 25 25 24 23 23 24
9 8 10 10 12 10 10 11 12 13 14 13 14 14 14 15 16 17 17 18 18 19 20 20 21 22 23 24 24 24 24 24 25 26 27 27 27 28 27 26 27 27 26 26 26 25 24 24 24
7 8 9 9 10 10 9 11 12 13 15 14 15 16 15 16 18 18 18 19 20 20 21 21 22 23 24 25 25 25 25 26 27 27 28 28 28 28 28 27 27 27 26 26 26 26 25 24 24
7 8 8 8 9 11 11 12 13 14 14 15 15 16 16 17 17 18 18 19 20 21 21 21 22 23 24 24 25 26 27 27 27 28 28 29 29 30 30 29 28 28 27 27 27 26 25 25 25
3 5 6 9 11 12 13 13 14 14 14 15 15 15 16 17 17 17 18 20 20 21 22 22 23 24 25 26 26 26 27 28 28 29 30 30 30 29 30 30 28 28 28 27 27 26 26 26 26
3 5 7 10 12 13 13 13 14 14 15 16 15 15 16 17 18 18 19 20 21 22 22 23 25 25 25 26 26 26 27 28 29 30 30 30 30 30 30 30 29 28 28 27 26 26 26 27 26
4 6 8 11 11 11 12 14 16 14 14 15 16 16 17 17 18 19 20 21 22 23 23 23 25 27 26 26 27 27 28 29 29 30 30 29 30 30 30 30 29 28 28 28 27 27 27 26 25
5 8 8 10 11 11 12 13 15 15 15 15 16 17 18 18 19 20 21 22 22 24 25 25 26 27 27 27 28 28 28 29 29 29 29 30 30 30 30 29 29 29 28 28 28 27 27 26 25
6 7 7 9 11 11 12 13 14 16 16 17 17 18 18 19 20 20 21 23 24 25 25 25 27 27 27 28 29 29 29 29 30 30 30 30 29 29 29 29 29 28 28 27 27 27 26 26 25
5 5 7 9 9 10 12 13 14 15 18 19 18 19 20 19 20 20 21 24 25 26 26 27 27 28 28 29 30 30 30 31 31 30 30 30 29 28 28 28 27 27 26 25 24 25 25 25 25
6 5 7 10 10 9 11 14 15 16 20 20 19 20 20 20 21 21 22 24 25 26 28 28 28 28 29 29 29 30 32 32 31 30 29 28 28 27 26 26 25 25 24 25 24 24 25 24 25
7 7 8 10 10 9 10 14 16 18 20 21 21 22 23 22 22 23 24 25 26 28 28 28 29 29 29 29 30 31 31 31 30 28 28 27 26 25 25 25 24 24 24 24 24 24 23 24 24
8 8 8 9 9 9 10 14 18 19 19 20 21 23 25 24 24 24 25 26 27 28 28 29 30 30 30 30 30 30 29 29 29 27 26 25 23 23 23 24 23 23 24 24 24 24 23 24 24
8 10 9 9 10 12 11 14 19 21 21 22 22 23 26 26 26 25 25 26 27 28 28 29 30 30 29 29 29 29 27 27 26 26 25 23 22 22 22 23 23 23 24 23 23 23 23 23 23
9 9 10 10 11 12 11 13 19 21 22 23 24 26 27 27 27 27 27 27 28 28 29 30 30 29 29 28 28 28 27 26 25 24 23 22 21 22 22 22 22 23 23 23 23 23 23 23 23
10 9 10 11 12 12 11 15 20 20 23 24 25 26 27 28 27 27 28 27 27 28 28 29 29 28 28 27 27 27 26 25 24 23 22 21 21 21 22 21 21 21 22 23 23 23 23 22 22
10 8 9 13 13 12 13 17 19 21 23 24 25 26 27 28 27 27 27 27 27 28 28 28 28 28 27 26 26 26 25 24 23 22 21 20 20 21 21 21 21 21 21 22 22 22 22 22 22
9 11 11 12 13 13 13 15 19 20 23 24 25 25 26 27 27 26 26 26 27 27 28 28 27 26 26 25 24 24 24 23 22 21 21 21 21 20 21 20 20 21 21 21 20 21 21 21 22
11 12 12 12 12 13 15 17 20 22 24 25 25 26 27 26 25 25 25 26 26 26 26 26 25 25 25 24 23 23 23 22 21 21 21 21 20 20 20 19 19 19 20 20 20 20 20 20 20
12 12 13 14 14 15 16 18 21 23 24 23 24 25 25 25 25 25 26 25 25 25 25 25 24 24 23 22 22 22 22 22 21 21 21 20 20 19 19 19 19 18 18 19 19 19 19 19 18